| time (UTC) | temp F | wind direction | speed knots | gust knots | rain 1hr in | rain 24hr in | rain mn in | humidity % | barometer mb |
| 20260906064040 | 52 | 306 | 2.6 | 7.8 | 0.00 | 0.00 | 0.00 | 87 | 1007.3 |
| 20260906063539 | 52 | 336 | 1.7 | 7.8 | 0.00 | 0.00 | 0.00 | 88 | 1007.3 |
| 20260906063058 | 51 | 340 | 2.6 | 7.0 | 0.00 | 0.00 | 0.00 | 89 | 1007.3 |
| 20260906062538 | 51 | 275 | 2.6 | 7.0 | 0.00 | 0.00 | 0.00 | 90 | 1007.2 |
| 20260906062039 | 50 | 290 | 1.7 | 6.1 | 0.00 | 0.00 | 0.00 | 92 | 1007.2 |
| 20260906061557 | 50 | 295 | 2.6 | 6.1 | 0.00 | 0.00 | 0.00 | 92 | 1007.1 |
| 20260906061039 | 50 | 288 | 1.7 | 4.3 | 0.00 | 0.00 | 0.00 | 93 | 1007.2 |
| 20260906060537 | 49 | 290 | 0.9 | 2.6 | 0.00 | 0.00 | 0.00 | 93 | 1007.1 |
| 20260906060054 | 49 | 315 | 0.9 | 2.6 | 0.00 | 0.00 | 0.00 | 94 | 1007.0 |
| 20260906055537 | 48 | 314 | 0.0 | 1.7 | 0.00 | 0.00 | 0.00 | 94 | 1007.0 |
| 20260906055037 | 47 | 0 | 0.0 | 1.7 | 0.00 | 0.00 | 0.00 | 94 | 1007.1 |
| 20260906054601 | 47 | 238 | 0.0 | 1.7 | 0.00 | 0.00 | 0.00 | 94 | 1006.9 |
| 20260906054037 | 46 | 0 | 0.0 | 1.7 | 0.00 | 0.00 | 0.00 | 94 | 1007.0 |
| 20260906053537 | 46 | 0 | 0.0 | 3.5 | 0.00 | 0.00 | 0.00 | 94 | 1006.9 |
| 20260906053059 | 46 | 0 | 0.9 | 3.5 | 0.00 | 0.00 | 0.00 | 94 | 1006.9 |
| 20260906052538 | 45 | 248 | 0.0 | 2.6 | 0.00 | 0.00 | 0.00 | 94 | 1006.9 |
| 20260906052038 | 45 | 315 | 0.9 | 2.6 | 0.00 | 0.00 | 0.00 | 94 | 1006.8 |
| 20260906051556 | 45 | 302 | 0.0 | 1.7 | 0.00 | 0.00 | 0.00 | 94 | 1006.7 |
| 20260906051042 | 45 | 0 | 0.0 | 1.7 | 0.00 | 0.00 | 0.00 | 94 | 1006.7 |
| 20260906050537 | 44 | 302 | 0.0 | 2.6 | 0.00 | 0.00 | 0.00 | 94 | 1006.6 |
| 20260906050113 | 44 | 0 | 0.0 | 2.6 | 0.00 | 0.00 | 0.00 | 94 | 1006.4 |
| 20260906045536 | 44 | 0 | 0.0 | 0.9 | 0.00 | 0.00 | 0.00 | 94 | 1006.5 |
| 20260906045037 | 44 | 0 | 0.0 | 1.7 | 0.00 | 0.00 | 0.00 | 94 | 1006.4 |
| 20260906044557 | 43 | 0 | 0.0 | 1.7 | 0.00 | 0.00 | 0.00 | 94 | 1006.3 |
| 20260906044039 | 43 | 302 | 0.0 | 1.7 | 0.00 | 0.00 | 0.00 | 94 | 1006.3 |
| 20260906043537 | 43 | 0 | 0.0 | 0.0 | 0.00 | 0.00 | 0.00 | 94 | 1006.4 |
| 20260906043057 | 42 | 0 | 0.0 | 0.0 | 0.00 | 0.00 | 0.00 | 94 | 1006.2 |
| 20260906042537 | 42 | 0 | 0.0 | 0.0 | 0.00 | 0.00 | 0.00 | 94 | 1006.1 |
| 20260906042037 | 42 | 0 | 0.0 | 0.0 | 0.00 | 0.00 | 0.00 | 94 | 1006.1 |
| 20260906041554 | 42 | 0 | 0.0 | 0.0 | 0.00 | 0.00 | 0.00 | 94 | 1006.0 |
| 20260906041038 | 42 | 0 | 0.0 | 0.0 | 0.00 | 0.00 | 0.00 | 93 | 1006.0 |
| 20260906040540 | 41 | 0 | 0.0 | 1.7 | 0.00 | 0.00 | 0.00 | 93 | 1006.0 |
| 20260906040114 | 42 | 0 | 0.0 | 1.7 | 0.00 | 0.00 | 0.00 | 93 | 1005.9 |
| 20260906035539 | 42 | 311 | 0.9 | 1.7 | 0.00 | 0.00 | 0.00 | 93 | 1005.8 |
| 20260906035038 | 42 | 0 | 0.0 | 3.5 | 0.00 | 0.00 | 0.00 | 93 | 1005.7 |
| 20260906034605 | 42 | 5 | 0.9 | 3.5 | 0.00 | 0.00 | 0.00 | 93 | 1005.7 |
| 20260906034037 | 42 | 0 | 0.0 | 2.6 | 0.00 | 0.00 | 0.00 | 93 | 1005.7 |
| 20260906033537 | 42 | 0 | 0.0 | 2.6 | 0.00 | 0.00 | 0.00 | 93 | 1005.8 |
| 20260906033058 | 41 | 0 | 0.0 | 1.7 | 0.00 | 0.00 | 0.00 | 93 | 1005.7 |
| 20260906032537 | 42 | 0 | 0.0 | 1.7 | 0.00 | 0.00 | 0.00 | 93 | 1005.7 |
| 20260906032038 | 42 | 0 | 0.0 | 1.7 | 0.00 | 0.00 | 0.00 | 93 | 1005.6 |
| 20260906031600 | 43 | 0 | 0.0 | 0.0 | 0.00 | 0.00 | 0.00 | 93 | 1005.6 |
| 20260906031037 | 43 | 0 | 0.0 | 2.6 | 0.00 | 0.00 | 0.00 | 93 | 1005.4 |
| 20260906030538 | 43 | 0 | 0.0 | 2.6 | 0.00 | 0.00 | 0.00 | 93 | 1005.4 |
| 20260906025537 | 43 | 0 | 0.0 | 2.6 | 0.00 | 0.00 | 0.00 | 93 | 1005.3 |
| 20260906025039 | 44 | 0 | 0.0 | 4.3 | 0.00 | 0.00 | 0.00 | 93 | 1005.2 |
| 20260906024604 | 44 | 306 | 1.7 | 6.1 | 0.00 | 0.00 | 0.00 | 93 | 1005.1 |
| 20260906024040 | 44 | 304 | 0.9 | 6.1 | 0.00 | 0.00 | 0.00 | 93 | 1005.1 |
| 20260906023539 | 44 | 355 | 1.7 | 4.3 | 0.00 | 0.00 | 0.00 | 93 | 1005.0 |
| 20260906023055 | 45 | 343 | 1.7 | 4.3 | 0.00 | 0.00 | 0.00 | 93 | 1004.9 |
| 20260906022539 | 45 | 325 | 1.7 | 5.2 | 0.00 | 0.00 | 0.00 | 93 | 1004.9 |
| 20260906022041 | 45 | 345 | 2.6 | 7.0 | 0.00 | 0.00 | 0.00 | 93 | 1004.8 |
| 20260906021604 | 44 | 311 | 1.7 | 7.0 | 0.00 | 0.00 | 0.00 | 94 | 1004.8 |
| 20260906021037 | 44 | 333 | 1.7 | 5.2 | 0.00 | 0.00 | 0.00 | 93 | 1004.7 |
| 20260906020538 | 43 | 5 | 0.9 | 4.3 | 0.00 | 0.00 | 0.00 | 93 | 1004.6 |
| 20260906020107 | 43 | 324 | 0.9 | 3.5 | 0.00 | 0.00 | 0.00 | 93 | 1004.5 |
| 20260906015537 | 42 | 316 | 0.9 | 2.6 | 0.00 | 0.00 | 0.00 | 93 | 1004.4 |
| 20260906015039 | 42 | 0 | 0.0 | 0.9 | 0.00 | 0.00 | 0.00 | 92 | 1004.2 |
| 20260906014600 | 42 | 0 | 0.0 | 1.7 | 0.00 | 0.00 | 0.00 | 92 | 1004.2 |
| 20260906014037 | 43 | 0 | 0.0 | 1.7 | 0.00 | 0.00 | 0.00 | 92 | 1004.2 |
| 20260906013537 | 43 | 0 | 0.0 | 3.5 | 0.00 | 0.00 | 0.00 | 92 | 1004.2 |
| 20260906013056 | 43 | 350 | 0.9 | 4.3 | 0.00 | 0.00 | 0.00 | 92 | 1004.1 |
| 20260906012537 | 43 | 0 | 0.9 | 4.3 | 0.00 | 0.00 | 0.00 | 92 | 1004.0 |
| 20260906012038 | 44 | 324 | 0.9 | 4.3 | 0.00 | 0.00 | 0.00 | 92 | 1004.0 |
| 20260906011558 | 44 | 329 | 0.9 | 4.3 | 0.00 | 0.00 | 0.00 | 92 | 1003.9 |
| 20260906011042 | 44 | 320 | 0.9 | 2.6 | 0.00 | 0.00 | 0.00 | 92 | 1004.0 |
| 20260906010537 | 44 | 319 | 0.0 | 2.6 | 0.00 | 0.00 | 0.00 | 92 | 1003.8 |
| 20260906010106 | 45 | 0 | 0.0 | 4.3 | 0.00 | 0.00 | 0.00 | 92 | 1003.8 |
| 20260906005537 | 45 | 334 | 0.9 | 4.3 | 0.00 | 0.00 | 0.00 | 92 | 1003.8 |
| 20260906005037 | 45 | 329 | 1.7 | 4.3 | 0.00 | 0.00 | 0.00 | 91 | 1003.8 |
| 20260906004555 | 45 | 317 | 0.9 | 3.5 | 0.00 | 0.00 | 0.00 | 91 | 1003.8 |
| 20260906004038 | 45 | 331 | 0.9 | 3.5 | 0.00 | 0.00 | 0.00 | 92 | 1003.7 |
| 20260906003538 | 45 | 338 | 0.9 | 4.3 | 0.00 | 0.00 | 0.00 | 91 | 1003.7 |
| 20260906003100 | 45 | 337 | 0.0 | 4.3 | 0.00 | 0.00 | 0.00 | 91 | 1003.6 |
| 20260906002537 | 45 | 329 | 0.9 | 3.5 | 0.00 | 0.00 | 0.00 | 91 | 1003.6 |
| 20260906002038 | 45 | 269 | 0.9 | 4.3 | 0.00 | 0.00 | 0.00 | 91 | 1003.5 |
| 20260906001609 | 46 | 311 | 0.9 | 4.3 | 0.00 | 0.00 | 0.00 | 91 | 1003.5 |
| 20260906001037 | 46 | 344 | 0.9 | 5.2 | 0.00 | 0.00 | 0.00 | 91 | 1003.4 |
| 20260906000537 | 46 | 317 | 0.9 | 5.2 | 0.00 | 0.00 | 0.00 | 91 | 1003.4 |
| 20260906000056 | 46 | 316 | 1.7 | 8.7 | 0.00 | 0.00 | 0.00 | 91 | 1003.2 |
| 20260905235538 | 46 | 333 | 1.7 | 8.7 | 0.00 | 0.00 | 0.00 | 91 | 1003.2 |
| 20260905235038 | 46 | 316 | 2.6 | 8.7 | 0.00 | 0.00 | 0.00 | 90 | 1003.1 |
| 20260905234549 | 47 | 347 | 1.7 | 5.2 | 0.00 | 0.00 | 0.00 | 90 | 1003.1 |
| 20260905234038 | 47 | 322 | 1.7 | 4.3 | 0.00 | 0.00 | 0.00 | 90 | 1003.0 |
| 20260905233539 | 47 | 326 | 1.7 | 5.2 | 0.00 | 0.00 | 0.00 | 90 | 1003.0 |
| 20260905233109 | 47 | 323 | 1.7 | 5.2 | 0.00 | 0.00 | 0.00 | 89 | 1002.9 |
| 20260905232538 | 47 | 314 | 0.9 | 4.3 | 0.00 | 0.00 | 0.00 | 89 | 1002.9 |
| 20260905232036 | 47 | 0 | 0.9 | 7.8 | 0.00 | 0.00 | 0.00 | 89 | 1002.9 |
| 20260905231558 | 48 | 322 | 2.6 | 7.8 | 0.00 | 0.00 | 0.00 | 89 | 1002.8 |
| 20260905231037 | 48 | 347 | 1.7 | 7.8 | 0.00 | 0.00 | 0.00 | 89 | 1002.8 |
| 20260905230538 | 48 | 324 | 2.6 | 7.8 | 0.00 | 0.00 | 0.00 | 89 | 1002.8 |
| 20260905230056 | 48 | 24 | 2.6 | 7.0 | 0.00 | 0.00 | 0.00 | 89 | 1002.7 |
| 20260905225539 | 48 | 330 | 1.7 | 7.0 | 0.00 | 0.00 | 0.00 | 89 | 1002.6 |
| 20260905225038 | 48 | 271 | 2.6 | 7.8 | 0.00 | 0.00 | 0.00 | 89 | 1002.6 |
| 20260905224608 | 48 | 321 | 3.5 | 7.8 | 0.00 | 0.00 | 0.00 | 89 | 1002.6 |
| 20260905224040 | 49 | 330 | 1.7 | 7.0 | 0.00 | 0.00 | 0.00 | 88 | 1002.5 |
| 20260905223538 | 49 | 11 | 2.6 | 7.0 | 0.00 | 0.00 | 0.00 | 88 | 1002.4 |
| 20260905223058 | 49 | 320 | 1.7 | 7.0 | 0.00 | 0.00 | 0.00 | 89 | 1002.4 |
| 20260905222536 | 49 | 324 | 1.7 | 6.1 | 0.00 | 0.00 | 0.00 | 88 | 1002.3 |
| 20260905222040 | 49 | 339 | 1.7 | 6.1 | 0.00 | 0.00 | 0.00 | 88 | 1002.1 |
| 20260905221559 | 49 | 335 | 1.7 | 5.2 | 0.00 | 0.00 | 0.00 | 92 | 1002.1 |
| 20260905221038 | 49 | 360 | 0.9 | 6.1 | 0.00 | 0.00 | 0.00 | 88 | 1002.1 |
| 20260905220540 | 50 | 311 | 2.6 | 9.6 | 0.00 | 0.00 | 0.00 | 88 | 1002.1 |
| 20260905215540 | 50 | 360 | 4.3 | 9.6 | 0.00 | 0.00 | 0.00 | 87 | 1001.9 |
| 20260905215037 | 50 | 5 | 1.7 | 7.0 | 0.00 | 0.00 | 0.00 | 87 | 1001.8 |
| 20260905214601 | 51 | 328 | 2.6 | 7.0 | 0.00 | 0.00 | 0.00 | 87 | 1001.7 |
| 20260905214038 | 51 | 325 | 2.6 | 7.8 | 0.00 | 0.00 | 0.00 | 87 | 1001.7 |
| 20260905213538 | 51 | 316 | 2.6 | 7.8 | 0.00 | 0.00 | 0.00 | 87 | 1001.7 |
| 20260905213103 | 51 | 15 | 3.5 | 7.8 | 0.00 | 0.00 | 0.00 | 87 | 1001.6 |
| 20260905212538 | 51 | 346 | 1.7 | 7.0 | 0.00 | 0.00 | 0.00 | 87 | 1001.6 |
| 20260905212037 | 51 | 309 | 2.6 | 9.6 | 0.00 | 0.00 | 0.00 | 87 | 1001.5 |
| 20260905211553 | 51 | 360 | 2.6 | 9.6 | 0.00 | 0.00 | 0.00 | 88 | 1001.4 |
| 20260905211038 | 51 | 311 | 1.7 | 7.0 | 0.00 | 0.00 | 0.00 | 88 | 1001.3 |
| 20260905210537 | 51 | 284 | 2.6 | 7.8 | 0.00 | 0.00 | 0.00 | 89 | 1001.3 |
| 20260905210110 | 51 | 351 | 2.6 | 7.8 | 0.00 | 0.00 | 0.00 | 89 | 1001.3 |
| 20260905205537 | 51 | 315 | 3.5 | 7.8 | 0.00 | 0.00 | 0.00 | 90 | 1001.2 |
| 20260905205037 | 51 | 5 | 2.6 | 8.7 | 0.00 | 0.00 | 0.00 | 91 | 1000.9 |
| 20260905204556 | 51 | 16 | 1.7 | 8.7 | 0.00 | 0.00 | 0.00 | 91 | 1001.0 |
| 20260905204041 | 51 | 360 | 1.7 | 6.1 | 0.00 | 0.00 | 0.00 | 92 | 1000.9 |
| 20260905203538 | 51 | 329 | 1.7 | 6.1 | 0.00 | 0.00 | 0.00 | 92 | 1000.8 |
| 20260905203101 | 52 | 360 | 1.7 | 6.1 | 0.00 | 0.00 | 0.00 | 93 | 1000.7 |
| 20260905202537 | 51 | 10 | 0.9 | 5.2 | 0.00 | 0.00 | 0.00 | 93 | 1000.6 |
| 20260905202038 | 51 | 355 | 1.7 | 5.2 | 0.00 | 0.00 | 0.00 | 93 | 1000.5 |
| 20260905201605 | 51 | 360 | 2.6 | 7.0 | 0.00 | 0.00 | 0.00 | 93 | 1000.4 |
| 20260905201037 | 51 | 346 | 2.6 | 7.0 | 0.00 | 0.00 | 0.00 | 93 | 1000.4 |
| 20260905200537 | 51 | 5 | 1.7 | 4.3 | 0.00 | 0.00 | 0.00 | 93 | 1000.3 |
| 20260905200123 | 51 | 5 | 0.9 | 3.5 | 0.00 | 0.00 | 0.00 | 93 | 1000.2 |
| 20260905195538 | 51 | 360 | 1.7 | 3.5 | 0.00 | 0.00 | 0.00 | 94 | 1000.2 |
| 20260905195038 | 50 | 360 | 0.9 | 3.5 | 0.00 | 0.00 | 0.00 | 93 | 1000.0 |
| 20260905194553 | 50 | 324 | 0.9 | 3.5 | 0.00 | 0.00 | 0.00 | 93 | 1000.0 |
| 20260905194038 | 49 | 355 | 0.9 | 2.6 | 0.00 | 0.00 | 0.00 | 93 | 999.9 |
| 20260905193537 | 49 | 36 | 0.9 | 1.7 | 0.00 | 0.00 | 0.00 | 92 | 999.8 |
| 20260905193054 | 49 | 0 | 0.0 | 0.0 | 0.00 | 0.00 | 0.00 | 92 | 999.8 |
| 20260905192538 | 49 | 0 | 0.0 | 0.0 | 0.00 | 0.00 | 0.00 | 92 | 999.7 |
| 20260905192038 | 49 | 0 | 0.0 | 0.0 | 0.00 | 0.00 | 0.00 | 92 | 999.7 |
| 20260905191556 | 49 | 0 | 0.0 | 0.0 | 0.00 | 0.00 | 0.00 | 92 | 999.8 |
| 20260905191037 | 50 | 0 | 0.0 | 0.0 | 0.00 | 0.00 | 0.00 | 92 | 999.7 |
| 20260905190539 | 50 | 0 | 0.0 | 0.0 | 0.00 | 0.00 | 0.00 | 92 | 999.7 |
| 20260905190054 | 50 | 0 | 0.0 | 0.0 | 0.00 | 0.00 | 0.00 | 92 | 999.7 |
| 20260905185542 | 50 | 0 | 0.0 | 0.0 | 0.00 | 0.00 | 0.00 | 92 | 999.7 |
| 20260905185042 | 50 | 0 | 0.0 | 0.0 | 0.00 | 0.00 | 0.00 | 91 | 999.6 |
| 20260905184611 | 50 | 0 | 0.0 | 0.0 | 0.00 | 0.00 | 0.00 | 91 | 999.6 |
| 20260905184038 | 51 | 0 | 0.0 | 0.0 | 0.00 | 0.00 | 0.00 | 91 | 999.6 |
| 20260905183538 | 51 | 0 | 0.0 | 0.9 | 0.00 | 0.00 | 0.00 | 91 | 999.5 |
| 20260905183058 | 51 | 0 | 0.0 | 0.9 | 0.00 | 0.00 | 0.00 | 90 | 999.5 |
| 20260905182541 | 51 | 0 | 0.0 | 0.9 | 0.00 | 0.00 | 0.00 | 90 | 999.5 |
| 20260905182038 | 52 | 0 | 0.0 | 0.0 | 0.00 | 0.00 | 0.00 | 89 | 999.4 |
| 20260905181555 | 52 | 0 | 0.0 | 1.7 | 0.00 | 0.00 | 0.00 | 89 | 999.4 |
| 20260905181039 | 53 | 0 | 0.0 | 1.7 | 0.00 | 0.00 | 0.00 | 89 | 999.4 |
| 20260905180540 | 53 | 332 | 0.0 | 2.6 | 0.00 | 0.00 | 0.00 | 88 | 999.4 |
| 20260905180100 | 54 | 332 | 0.9 | 2.6 | 0.00 | 0.00 | 0.00 | 88 | 999.3 |
| 20260905175538 | 54 | 332 | 0.9 | 3.5 | 0.00 | 0.00 | 0.00 | 88 | 999.2 |
| 20260905175038 | 54 | 328 | 0.9 | 3.5 | 0.00 | 0.00 | 0.00 | 88 | 999.2 |
| 20260905174604 | 54 | 327 | 0.9 | 3.5 | 0.00 | 0.00 | 0.00 | 88 | 999.2 |
| 20260905174041 | 54 | 325 | 0.0 | 2.6 | 0.00 | 0.00 | 0.00 | 87 | 999.1 |
| 20260905173538 | 55 | 0 | 0.0 | 0.0 | 0.00 | 0.00 | 0.00 | 87 | 999.1 |
| 20260905173055 | 55 | 0 | 0.0 | 0.0 | 0.00 | 0.00 | 0.00 | 87 | 999.0 |
| 20260905172538 | 55 | 0 | 0.0 | 0.0 | 0.00 | 0.00 | 0.00 | 86 | 998.9 |
| 20260905172038 | 56 | 0 | 0.0 | 0.0 | 0.00 | 0.00 | 0.00 | 85 | 998.9 |
| 20260905171604 | 56 | 0 | 0.0 | 0.0 | 0.00 | 0.00 | 0.00 | 84 | 998.9 |
| 20260905171039 | 56 | 0 | 0.0 | 2.6 | 0.00 | 0.00 | 0.00 | 83 | 998.7 |
| 20260905170538 | 57 | 0 | 0.0 | 3.5 | 0.00 | 0.00 | 0.00 | 81 | 998.7 |
| 20260905170057 | 58 | 350 | 1.7 | 4.3 | 0.00 | 0.00 | 0.00 | 80 | 998.6 |
| 20260905165538 | 58 | 318 | 1.7 | 4.3 | 0.00 | 0.00 | 0.00 | 80 | 998.6 |
| 20260905165039 | 58 | 319 | 0.9 | 4.3 | 0.00 | 0.00 | 0.00 | 79 | 998.5 |
| 20260905164557 | 58 | 5 | 2.6 | 6.1 | 0.00 | 0.00 | 0.00 | 78 | 998.4 |
| 20260905164038 | 59 | 323 | 2.6 | 6.1 | 0.00 | 0.00 | 0.00 | 77 | 998.4 |
| 20260905163539 | 59 | 340 | 0.9 | 7.0 | 0.00 | 0.00 | 0.00 | 77 | 998.3 |
| 20260905163056 | 59 | 331 | 2.6 | 7.0 | 0.00 | 0.00 | 0.00 | 75 | 998.3 |
| 20260905162541 | 59 | 336 | 2.6 | 7.0 | 0.00 | 0.00 | 0.00 | 74 | 998.2 |
| 20260905162039 | 59 | 329 | 2.6 | 7.0 | 0.00 | 0.00 | 0.00 | 74 | 998.2 |
| 20260905161615 | 60 | 294 | 1.7 | 7.0 | 0.00 | 0.00 | 0.00 | 73 | 998.0 |
| 20260905161038 | 60 | 304 | 1.7 | 7.8 | 0.00 | 0.00 | 0.00 | 72 | 998.0 |
| 20260905160538 | 60 | 325 | 2.6 | 8.7 | 0.00 | 0.00 | 0.00 | 72 | 997.9 |
| 20260905160054 | 60 | 309 | 2.6 | 8.7 | 0.00 | 0.00 | 0.00 | 72 | 997.9 |
| 20260905155538 | 60 | 301 | 4.3 | 10.4 | 0.00 | 0.00 | 0.00 | 72 | 997.9 |
| 20260905155037 | 60 | 325 | 4.3 | 10.4 | 0.00 | 0.00 | 0.00 | 72 | 997.8 |
| 20260905154600 | 60 | 289 | 3.5 | 7.8 | 0.00 | 0.00 | 0.00 | 74 | 997.7 |
| 20260905154039 | 61 | 277 | 2.6 | 6.1 | 0.00 | 0.00 | 0.00 | 74 | 997.7 |
| 20260905153539 | 61 | 302 | 1.7 | 6.1 | 0.00 | 0.00 | 0.00 | 74 | 997.7 |
| 20260905153056 | 61 | 295 | 2.6 | 6.1 | 0.00 | 0.00 | 0.00 | 74 | 997.6 |
| 20260905152538 | 61 | 320 | 1.7 | 6.1 | 0.00 | 0.00 | 0.00 | 73 | 997.5 |
| 20260905152039 | 61 | 317 | 1.7 | 6.1 | 0.00 | 0.00 | 0.00 | 74 | 997.5 |
| 20260905151601 | 60 | 322 | 2.6 | 7.0 | 0.00 | 0.00 | 0.00 | 73 | 997.4 |
| 20260905151037 | 60 | 325 | 1.7 | 7.0 | 0.00 | 0.00 | 0.00 | 73 | 997.4 |
| 20260905150538 | 60 | 306 | 2.6 | 7.0 | 0.00 | 0.00 | 0.00 | 73 | 997.4 |
| 20260905150057 | 60 | 280 | 2.6 | 7.0 | 0.00 | 0.00 | 0.00 | 72 | 997.4 |
| 20260905145539 | 60 | 318 | 1.7 | 8.7 | 0.00 | 0.00 | 0.00 | 72 | 997.5 |
| 20260905145041 | 60 | 313 | 3.5 | 8.7 | 0.00 | 0.00 | 0.00 | 72 | 997.4 |
| 20260905144557 | 60 | 291 | 3.5 | 12.2 | 0.00 | 0.00 | 0.00 | 71 | 997.4 |
| 20260905144038 | 60 | 317 | 5.2 | 12.2 | 0.00 | 0.00 | 0.00 | 69 | 997.3 |
| 20260905143538 | 60 | 275 | 2.6 | 13.0 | 0.00 | 0.00 | 0.00 | 70 | 997.3 |
| 20260905143057 | 60 | 321 | 5.2 | 13.0 | 0.00 | 0.00 | 0.00 | 70 | 997.2 |
| 20260905142538 | 60 | 321 | 7.0 | 13.0 | 0.00 | 0.00 | 0.00 | 70 | 997.1 |
| 20260905142039 | 61 | 351 | 5.2 | 10.4 | 0.00 | 0.00 | 0.00 | 70 | 997.1 |
| 20260905141555 | 61 | 326 | 3.5 | 8.7 | 0.00 | 0.00 | 0.00 | 70 | 997.0 |
| 20260905141038 | 61 | 314 | 5.2 | 9.6 | 0.00 | 0.00 | 0.00 | 70 | 997.0 |
| 20260905140538 | 61 | 302 | 4.3 | 12.2 | 0.00 | 0.00 | 0.00 | 69 | 997.0 |
| 20260905140105 | 61 | 318 | 5.2 | 12.2 | 0.00 | 0.00 | 0.00 | 68 | 996.9 |
| 20260905135540 | 62 | 312 | 6.1 | 14.8 | 0.00 | 0.00 | 0.00 | 66 | 996.8 |
| 20260905135040 | 63 | 318 | 7.0 | 14.8 | 0.00 | 0.00 | 0.00 | 63 | 996.8 |
| 20260905134606 | 64 | 301 | 4.3 | 8.7 | 0.00 | 0.00 | 0.00 | 58 | 996.7 |
| 20260905134040 | 64 | 330 | 3.5 | 7.8 | 0.00 | 0.00 | 0.00 | 56 | 996.5 |
| 20260905133538 | 65 | 341 | 3.5 | 8.7 | 0.00 | 0.00 | 0.00 | 55 | 996.5 |
| 20260905133100 | 65 | 316 | 3.5 | 8.7 | 0.00 | 0.00 | 0.00 | 55 | 996.4 |
| 20260905132538 | 66 | 329 | 4.3 | 11.3 | 0.00 | 0.00 | 0.00 | 55 | 996.3 |
| 20260905132039 | 65 | 348 | 6.1 | 11.3 | 0.00 | 0.00 | 0.00 | 57 | 996.4 |
| 20260905131559 | 65 | 325 | 4.3 | 10.4 | 0.00 | 0.00 | 0.00 | 55 | 996.3 |
| 20260905131038 | 65 | 340 | 2.6 | 10.4 | 0.00 | 0.00 | 0.00 | 55 | 996.2 |
| 20260905130537 | 66 | 320 | 4.3 | 10.4 | 0.00 | 0.00 | 0.00 | 55 | 996.2 |
| 20260905130055 | 66 | 316 | 6.1 | 10.4 | 0.00 | 0.00 | 0.00 | 55 | 996.2 |
| 20260905125538 | 65 | 295 | 2.6 | 6.1 | 0.00 | 0.10 | 0.00 | 60 | 996.3 |
| 20260905125038 | 65 | 108 | 0.9 | 6.1 | 0.00 | 0.10 | 0.00 | 59 | 996.2 |
| 20260905124605 | 64 | 17 | 0.9 | 6.1 | 0.00 | 0.10 | 0.00 | 60 | 996.2 |
| 20260905124037 | 63 | 289 | 2.6 | 6.1 | 0.00 | 0.10 | 0.00 | 61 | 996.2 |
| 20260905123538 | 62 | 329 | 1.7 | 7.0 | 0.00 | 0.10 | 0.00 | 61 | 996.2 |
| 20260905123107 | 62 | 330 | 2.6 | 7.8 | 0.00 | 0.10 | 0.00 | 61 | 996.2 |
| 20260905122540 | 63 | 311 | 1.7 | 7.8 | 0.00 | 0.10 | 0.00 | 62 | 996.2 |
| 20260905122036 | 63 | 323 | 2.6 | 8.7 | 0.00 | 0.10 | 0.00 | 61 | 996.3 |
| 20260905121557 | 63 | 296 | 3.5 | 8.7 | 0.00 | 0.10 | 0.00 | 63 | 996.2 |
| 20260905121039 | 62 | 267 | 1.7 | 4.3 | 0.00 | 0.10 | 0.00 | 63 | 996.2 |
| 20260905120539 | 61 | 329 | 1.7 | 6.1 | 0.00 | 0.10 | 0.00 | 63 | 996.2 |
| 20260905120104 | 61 | 314 | 1.7 | 6.1 | 0.00 | 0.10 | 0.00 | 63 | 996.2 |
| 20260905115537 | 62 | 340 | 1.7 | 9.6 | 0.00 | 0.10 | 0.00 | 63 | 996.1 |
| 20260905115037 | 61 | 311 | 2.6 | 9.6 | 0.00 | 0.10 | 0.00 | 64 | 996.1 |
| 20260905114608 | 62 | 323 | 4.3 | 12.2 | 0.00 | 0.10 | 0.00 | 64 | 996.0 |
| 20260905114038 | 62 | 336 | 5.2 | 13.0 | 0.00 | 0.10 | 0.00 | 62 | 996.0 |
| 20260905113539 | 63 | 318 | 6.1 | 13.0 | 0.00 | 0.10 | 0.00 | 62 | 996.1 |
| 20260905113108 | 63 | 324 | 2.6 | 10.4 | 0.00 | 0.10 | 0.00 | 61 | 995.9 |
| 20260905112538 | 64 | 325 | 4.3 | 10.4 | 0.00 | 0.10 | 0.00 | 57 | 995.9 |
| 20260905112038 | 65 | 34 | 2.6 | 8.7 | 0.00 | 0.10 | 0.00 | 59 | 995.8 |
| 20260905111611 | 65 | 327 | 4.3 | 8.7 | 0.00 | 0.10 | 0.00 | 59 | 995.7 |
| 20260905111038 | 65 | 336 | 2.6 | 8.7 | 0.00 | 0.10 | 0.00 | 60 | 995.7 |
| 20260905110539 | 65 | 329 | 0.9 | 8.7 | 0.00 | 0.10 | 0.00 | 61 | 995.7 |
| 20260905110101 | 65 | 319 | 1.7 | 7.0 | 0.00 | 0.10 | 0.00 | 61 | 995.7 |
| 20260905105538 | 64 | 346 | 2.6 | 7.8 | 0.00 | 0.23 | 0.00 | 64 | 995.6 |
| 20260905105057 | 64 | 321 | 1.7 | 7.8 | 0.00 | 0.23 | 0.00 | 61 | 995.6 |
| 20260905104552 | 64 | 321 | 3.5 | 7.8 | 0.00 | 0.23 | 0.00 | 62 | 995.6 |
| 20260905104038 | 64 | 0 | 1.7 | 9.6 | 0.00 | 0.23 | 0.00 | 62 | 995.5 |
| 20260905103538 | 64 | 325 | 4.3 | 9.6 | 0.00 | 0.23 | 0.00 | 63 | 995.5 |
| 20260905103054 | 64 | 30 | 1.7 | 11.3 | 0.00 | 0.23 | 0.00 | 66 | 995.5 |
| 20260905102540 | 64 | 318 | 6.1 | 11.3 | 0.00 | 0.23 | 0.00 | 64 | 995.4 |
| 20260905102038 | 64 | 299 | 2.6 | 9.6 | 0.00 | 0.23 | 0.00 | 64 | 995.4 |
| 20260905101552 | 63 | 320 | 6.1 | 9.6 | 0.00 | 0.23 | 0.00 | 65 | 995.3 |
| 20260905101038 | 64 | 318 | 2.6 | 7.8 | 0.00 | 0.23 | 0.00 | 64 | 995.2 |
| 20260905100538 | 63 | 25 | 1.7 | 6.1 | 0.00 | 0.23 | 0.00 | 70 | 995.2 |
| 20260905100105 | 62 | 5 | 1.7 | 7.8 | 0.00 | 0.23 | 0.00 | 65 | 995.2 |
| 20260905095538 | 62 | 30 | 3.5 | 7.8 | 0.00 | 0.23 | 0.00 | 66 | 995.2 |
| 20260905095039 | 62 | 10 | 1.7 | 5.2 | 0.00 | 0.23 | 0.00 | 70 | 995.2 |
| 20260905094606 | 61 | 11 | 1.7 | 6.1 | 0.00 | 0.23 | 0.00 | 68 | 995.2 |
| 20260905094038 | 62 | 360 | 1.7 | 7.0 | 0.00 | 0.23 | 0.00 | 68 | 995.1 |
| 20260905093539 | 62 | 19 | 3.5 | 7.0 | 0.00 | 0.23 | 0.00 | 67 | 995.1 |
| 20260905093055 | 63 | 344 | 0.9 | 4.3 | 0.00 | 0.23 | 0.00 | 68 | 995.1 |
| 20260905092539 | 63 | 0 | 0.9 | 5.2 | 0.00 | 0.23 | 0.00 | 73 | 995.0 |
| 20260905092038 | 63 | 44 | 1.7 | 7.8 | 0.00 | 0.23 | 0.00 | 76 | 995.1 |
| 20260905091602 | 62 | 92 | 2.6 | 7.8 | 0.00 | 0.23 | 0.00 | 73 | 995.1 |
| 20260905091038 | 62 | 82 | 2.6 | 7.8 | 0.00 | 0.23 | 0.00 | 75 | 995.0 |
| 20260905090538 | 62 | 43 | 1.7 | 4.3 | 0.00 | 0.23 | 0.00 | 76 | 995.0 |
| 20260905090059 | 0 | 73 | 0.9 | 4.3 | 0.00 | 0.23 | 0.00 | 75 | 995.0 |
| 20260905085538 | 0 | 96 | 1.7 | 5.2 | 0.00 | 0.23 | 0.00 | 995.0 | |
| 20260905085039 | 0 | 71 | 2.6 | 5.2 | 0.00 | 0.23 | 0.00 | 995.0 | |
| 20260905084555 | 0 | 74 | 0.9 | 4.3 | 0.00 | 0.23 | 0.00 | 994.9 | |
| 20260905084039 | 0 | 275 | 0.0 | 3.5 | 0.00 | 0.23 | 0.00 | 994.9 | |
| 20260905083541 | 0 | 335 | 1.7 | 4.3 | 0.00 | 0.23 | 0.00 | 994.8 | |
| 20260905083055 | 0 | 9 | 1.7 | 4.3 | 0.00 | 0.23 | 0.00 | 994.8 | |
| 20260905082538 | 0 | 55 | 0.0 | 2.6 | 0.00 | 0.23 | 0.00 | 994.8 | |
| 20260905082036 | 0 | 0 | 0.9 | 2.6 | 0.00 | 0.23 | 0.00 | 994.9 | |
| 20260905081601 | 0 | 49 | 0.9 | 2.6 | 0.00 | 0.23 | 0.00 | 994.9 | |
| 20260905081038 | 0 | 50 | 0.9 | 2.6 | 0.00 | 0.23 | 0.00 | 994.9 | |
| 20260905080539 | 0 | 80 | 0.9 | 2.6 | 0.00 | 0.23 | 0.00 | 994.9 | |
| 20260905075538 | -90 | 330 | 0.0 | 2.6 | 0.00 | 0.23 | 0.00 | 994.8 | |
| 20260905075043 | -90 | 0 | 0.0 | 1.7 | 0.00 | 0.23 | 0.00 | 994.8 | |
| 20260905074558 | -90 | 31 | 0.0 | 1.7 | 0.00 | 0.23 | 0.00 | 994.7 | |
| 20260905074038 | -90 | 40 | 0.0 | 4.3 | 0.00 | 0.23 | 0.00 | 994.7 | |
| 20260905073538 | -90 | 0 | 0.9 | 4.3 | 0.00 | 0.23 | 0.00 | 994.7 | |
| 20260905073100 | -90 | 39 | 0.0 | 3.5 | 0.00 | 0.23 | 0.00 | 994.7 | |
| 20260905072539 | -90 | 33 | 0.9 | 3.5 | 0.00 | 0.23 | 0.00 | 994.7 | |
| 20260905072040 | -90 | 48 | 0.0 | 4.3 | 0.00 | 0.23 | 0.00 | 994.7 | |
| 20260905071559 | -90 | 28 | 2.6 | 4.3 | 0.00 | 0.23 | 0.00 | 95 | 994.7 |
| 20260905071042 | 47 | 49 | 1.7 | 3.5 | 0.00 | 0.23 | 0.00 | 95 | 994.7 |
| 20260905070538 | 47 | 39 | 0.9 | 2.6 | 0.00 | 0.23 | 0.00 | 95 | 994.7 |
| 20260905065540 | 46 | 60 | 0.0 | 2.6 | 0.00 | 0.23 | 0.00 | 95 | 994.5 |
| 20260905065039 | 46 | 0 | 0.9 | 2.6 | 0.00 | 0.23 | 0.00 | 95 | 994.6 |
| 20260905064559 | 46 | 27 | 0.9 | 2.6 | 0.00 | 0.23 | 0.00 | 95 | 994.6 |